• In Romania
  • List of Countries
  • For 7 days
  • Water Temperature
  • Satellite Maps
  • Weather Map
  • Weather Widgets
  • user-avatar
    Login

    Hourly Weather Rauhala

    Today, 17 October, Wednesday

    Time Temperature Precipitation Wind Pressure Humidity
    00:00 +8°C° 0 mm 1 mps 762 mmHg 92%
    01:00 +8°C° 0 mm 1 mps 762 mmHg 92%
    02:00 +7°C° 0 mm 1 mps 762 mmHg 93%
    03:00 +7°C° 0 mm 1 mps 763 mmHg 93%
    04:00 +7°C° 0 mm 1 mps 763 mmHg 92%
    05:00 +7°C° 0 mm 1 mps 763 mmHg 92%
    06:00 +7°C° 0 mm 1 mps 763 mmHg 92%
    07:00 +7°C° 0 mm 1 mps 763 mmHg 92%
    08:00 +8°C° 0 mm 1 mps 763 mmHg 92%
    09:00 +8°C° 0 mm 2 mps 762 mmHg 88%
    10:00 +9°C° 0 mm 2 mps 762 mmHg 85%
    11:00 +10°C° 0 mm 2 mps 762 mmHg 81%
    12:00 +11°C° 0 mm 3 mps 762 mmHg 83%
    13:00 +11°C° 0 mm 3 mps 762 mmHg 85%
    14:00 +11°C° 0 mm 3 mps 761 mmHg 87%
    15:00 +11°C° 0.1 mm 3 mps 761 mmHg 89%
    16:00 +11°C° 0.1 mm 3 mps 761 mmHg 91%
    17:00 +11°C° 0.1 mm 4 mps 760 mmHg 93%
    18:00 +11°C° 0 mm 4 mps 760 mmHg 93%
    19:00 +11°C° 0 mm 4 mps 760 mmHg 92%
    20:00 +11°C° 0 mm 4 mps 759 mmHg 92%
    21:00 +10°C° 0 mm 5 mps 759 mmHg 92%
    22:00 +10°C° 0 mm 5 mps 759 mmHg 92%
    23:00 +10°C° 0 mm 5 mps 759 mmHg 92%

    Tomorrow, 18 October, Thursday

    Time Temperature Precipitation Wind Pressure Humidity
    00:00 +10°C° 0 mm 5 mps 758 mmHg 93%
    01:00 +10°C° 0 mm 5 mps 758 mmHg 93%
    02:00 +10°C° 0 mm 5 mps 758 mmHg 93%
    03:00 +11°C° 0 mm 4 mps 758 mmHg 93%
    04:00 +11°C° 0 mm 4 mps 758 mmHg 93%
    05:00 +11°C° 0 mm 4 mps 757 mmHg 93%
    06:00 +11°C° 0 mm 4 mps 757 mmHg 93%
    07:00 +11°C° 0 mm 4 mps 757 mmHg 93%
    08:00 +11°C° 0 mm 4 mps 757 mmHg 93%
    09:00 +12°C° 0 mm 4 mps 757 mmHg 92%
    10:00 +12°C° 0 mm 4 mps 756 mmHg 91%
    11:00 +12°C° 0 mm 4 mps 756 mmHg 90%
    12:00 +13°C° 0 mm 5 mps 755 mmHg 88%
    13:00 +13°C° 0 mm 5 mps 755 mmHg 86%
    14:00 +13°C° 0 mm 5 mps 754 mmHg 84%
    15:00 +13°C° 0 mm 6 mps 754 mmHg 84%
    16:00 +11°C° 0 mm 6 mps 753 mmHg 84%
    17:00 +11°C° 0 mm 6 mps 752 mmHg 84%
    18:00 +11°C° 0.6 mm 6 mps 752 mmHg 85%
    19:00 +11°C° 0.6 mm 6 mps 752 mmHg 87%
    20:00 +11°C° 0.6 mm 6 mps 752 mmHg 89%
    21:00 +10°C° 0.2 mm 6 mps 753 mmHg 85%
    22:00 +9°C° 0.2 mm 7 mps 753 mmHg 81%
    23:00 +8°C° 0.2 mm 7 mps 754 mmHg 78%

    Day after tomorrow, 19 October, Friday

    Time Temperature Precipitation Wind Pressure Humidity
    00:00 +6°C° 0 mm 7 mps 754 mmHg 78%
    01:00 +5°C° 0 mm 6 mps 755 mmHg 79%
    02:00 +5°C° 0 mm 6 mps 755 mmHg 79%
    03:00 +4°C° 0 mm 6 mps 756 mmHg 80%
    04:00 +4°C° 0 mm 6 mps 756 mmHg 81%
    05:00 +4°C° 0 mm 6 mps 756 mmHg 82%
    06:00 +4°C° 0 mm 6 mps 756 mmHg 82%
    07:00 +4°C° 0 mm 6 mps 756 mmHg 82%
    08:00 +4°C° 0 mm 6 mps 756 mmHg 82%
    09:00 +5°C° 0 mm 6 mps 756 mmHg 79%
    10:00 +5°C° 0 mm 6 mps 757 mmHg 77%
    11:00 +7°C° 0 mm 6 mps 757 mmHg 74%
    12:00 +7°C° 0 mm 6 mps 757 mmHg 73%
    13:00 +8°C° 0 mm 7 mps 757 mmHg 72%
    14:00 +8°C° 0 mm 7 mps 757 mmHg 71%
    15:00 +8°C° 0 mm 7 mps 757 mmHg 72%
    16:00 +6°C° 0 mm 7 mps 758 mmHg 74%
    17:00 +6°C° 0 mm 7 mps 758 mmHg 75%
    18:00 +7°C° 0 mm 6 mps 758 mmHg 76%
    19:00 +5°C° 0 mm 6 mps 758 mmHg 76%
    20:00 +5°C° 0 mm 6 mps 759 mmHg 76%
    21:00 +5°C° 0 mm 6 mps 759 mmHg 77%
    22:00 +6°C° 0 mm 5 mps 759 mmHg 78%
    23:00 +5°C° 0 mm 5 mps 759 mmHg 79%

    20 October, Saturday

    Time Temperature Precipitation Wind Pressure Humidity
    00:00 +5°C° 0 mm 5 mps 759 mmHg 80%
    01:00 +5°C° 0 mm 4 mps 760 mmHg 81%
    02:00 +5°C° 0 mm 4 mps 760 mmHg 82%
    03:00 +4°C° 0 mm 4 mps 760 mmHg 83%
    04:00 +4°C° 0 mm 4 mps 760 mmHg 84%
    05:00 +4°C° 0 mm 4 mps 760 mmHg 86%
    06:00 +4°C° 0 mm 4 mps 761 mmHg 86%
    07:00 +4°C° 0 mm 4 mps 761 mmHg 86%
    08:00 +4°C° 0 mm 4 mps 761 mmHg 87%
    09:00 +5°C° 0 mm 3 mps 761 mmHg 83%
    10:00 +5°C° 0 mm 3 mps 761 mmHg 80%
    11:00 +7°C° 0 mm 3 mps 762 mmHg 76%
    12:00 +7°C° 0 mm 3 mps 762 mmHg 74%
    13:00 +8°C° 0 mm 3 mps 762 mmHg 73%
    14:00 +8°C° 0 mm 3 mps 762 mmHg 71%
    15:00 +8°C° 0 mm 3 mps 762 mmHg 74%
    16:00 +7°C° 0 mm 3 mps 762 mmHg 78%
    17:00 +7°C° 0 mm 3 mps 762 mmHg 82%
    18:00 +7°C° 0 mm 3 mps 762 mmHg 83%
    19:00 +6°C° 0 mm 2 mps 762 mmHg 85%
    20:00 +6°C° 0 mm 2 mps 762 mmHg 87%
    21:00 +6°C° 0 mm 2 mps 762 mmHg 89%
    22:00 +6°C° 0 mm 2 mps 762 mmHg 91%
    23:00 +5°C° 0 mm 2 mps 762 mmHg 93%

    21 October, Sunday

    Time Temperature Precipitation Wind Pressure Humidity
    00:00 +5°C° 0 mm 2 mps 762 mmHg 94%
    01:00 +5°C° 0 mm 2 mps 762 mmHg 94%
    02:00 +5°C° 0 mm 2 mps 762 mmHg 95%
    03:00 +4°C° 0 mm 2 mps 762 mmHg 95%
    04:00 +4°C° 0 mm 2 mps 762 mmHg 95%
    05:00 +4°C° 0 mm 2 mps 762 mmHg 95%
    06:00 +4°C° 0 mm 2 mps 762 mmHg 95%
    07:00 +4°C° 0 mm 2 mps 762 mmHg 95%
    08:00 +4°C° 0 mm 2 mps 762 mmHg 96%
    09:00 +5°C° 0 mm 2 mps 762 mmHg 90%
    10:00 +5°C° 0 mm 3 mps 762 mmHg 85%
    11:00 +8°C° 0 mm 3 mps 762 mmHg 80%
    12:00 +7°C° 0 mm 4 mps 761 mmHg 78%
    13:00 +7°C° 0 mm 4 mps 761 mmHg 75%
    14:00 +8°C° 0 mm 5 mps 760 mmHg 73%
    15:00 +7°C° 0 mm 5 mps 760 mmHg 75%
    16:00 +7°C° 0 mm 6 mps 759 mmHg 78%
    17:00 +7°C° 0 mm 6 mps 759 mmHg 80%
    18:00 +6°C° 0 mm 7 mps 758 mmHg 81%
    19:00 +6°C° 0 mm 7 mps 758 mmHg 81%
    20:00 +6°C° 0 mm 7 mps 757 mmHg 81%
    21:00 +6°C° 0 mm 7 mps 757 mmHg 82%
    22:00 +8°C° 0 mm 7 mps 756 mmHg 82%
    23:00 +8°C° 0 mm 7 mps 756 mmHg 82%

    22 October, Monday

    Time Temperature Precipitation Wind Pressure Humidity
    00:00 +8°C° 0.1 mm 7 mps 755 mmHg 83%
    01:00 +8°C° 0.1 mm 7 mps 754 mmHg 84%
    02:00 +8°C° 0.1 mm 7 mps 754 mmHg 84%
    03:00 +9°C° 0.3 mm 8 mps 753 mmHg 85%
    04:00 +9°C° 0.3 mm 8 mps 752 mmHg 86%
    05:00 +10°C° 0.3 mm 8 mps 751 mmHg 86%
    06:00 +10°C° 0.9 mm 9 mps 750 mmHg 87%
    07:00 +10°C° 0.9 mm 9 mps 749 mmHg 87%
    08:00 +10°C° 0.9 mm 9 mps 749 mmHg 88%
    09:00 +10°C° 1 mm 9 mps 748 mmHg 88%
    10:00 +10°C° 1 mm 9 mps 747 mmHg 88%
    11:00 +10°C° 1 mm 9 mps 747 mmHg 88%
    12:00 +10°C° 0.5 mm 9 mps 746 mmHg 86%
    13:00 +10°C° 0.5 mm 9 mps 746 mmHg 83%
    14:00 +10°C° 0.5 mm 9 mps 745 mmHg 80%
    15:00 +8°C° 0.1 mm 9 mps 745 mmHg 78%
    16:00 +7°C° 0.1 mm 9 mps 746 mmHg 76%
    17:00 +6°C° 0.1 mm 9 mps 746 mmHg 74%
    18:00 +6°C° 0.5 mm 9 mps 747 mmHg 72%
    19:00 +5°C° 0.5 mm 9 mps 748 mmHg 70%
    20:00 +3°C° 0.5 mm 10 mps 749 mmHg 68%
    21:00 +3°C° 0 mm 9 mps 750 mmHg 69%
    22:00 +4°C° 0 mm 8 mps 751 mmHg 70%
    23:00 +3°C° 0 mm 7 mps 751 mmHg 72%
    Show more